Location: Palmerston North
(40.3500°S, 175.6170°E)
Time: 21:22:56
(UTC+13:00)

ISS - Visible Passes

Search period start: 21 October 2019 00:00
Search period end: 31 October 2019 00:00
Orbit: 411 x 421 km, 51.6° (Epoch: 21 October)

Date Brightness Start Highest point End Pass type
(mag) Time Alt. Az. Time Alt. Az. Time Alt. Az.
21 Oct -2.7 20:58:36 10° WNW 21:01:53 47° SSW 21:05:13 10° SE visible
21 Oct -0.7 22:37:11 10° SW 22:39:15 15° SSW 22:39:15 15° SSW visible
22 Oct -3.6 20:09:55 10° NW 20:13:17 80° SW 20:16:43 10° SE visible
22 Oct -1.0 21:48:00 10° WSW 21:50:28 18° SSW 21:52:57 10° SSE visible
23 Oct -1.4 20:58:52 10° W 21:01:41 24° SSW 21:04:32 10° SSE visible
23 Oct -0.6 22:37:47 10° SSW 22:39:23 13° S 22:39:41 12° S visible
24 Oct -0.7 21:48:42 10° SW 21:50:29 14° S 21:52:19 10° SSE visible
25 Oct -0.9 20:59:29 10° SW 21:01:37 16° SSW 21:03:46 10° SSE visible
25 Oct -0.7 22:37:43 10° SSW 22:39:23 13° S 22:39:23 13° S visible
26 Oct -0.8 21:49:00 10° SSW 21:50:33 12° S 21:52:07 10° SSE visible
26 Oct -0.1 23:25:30 10° SSW 23:25:33 10° SSW 23:25:33 10° SSW visible
27 Oct -0.8 21:00:02 10° SSW 21:01:37 13° S 21:03:14 10° SSE visible
27 Oct -1.0 22:37:03 10° SSW 22:38:46 17° S 22:38:46 17° S visible
28 Oct -1.1 21:48:33 10° SSW 21:50:33 15° SSE 21:51:57 12° SE visible
28 Oct -0.2 23:24:41 10° SW 23:24:50 11° SW 23:24:50 11° SW visible
29 Oct -1.0 20:59:56 10° SSW 21:01:37 13° S 21:03:18 10° SE visible
29 Oct -1.4 22:36:12 10° SW 22:38:00 22° S 22:38:00 22° S visible
30 Oct -1.7 21:47:42 10° SSW 21:50:23 21° SSE 21:51:10 19° SE visible
30 Oct -0.3 23:24:01 10° SW 23:24:03 10° SW 23:24:03 10° SW visible
